This is the latest recevied weather packets stored in our database for station/object KD8BMB. If no packets are shown the sender has not sent any weather packets the latest 10 day(s).
| Time | Temp. | Humidity | Pressure | Rain* | Wind** | Luminosity | Snow |
|---|---|---|---|---|---|---|---|
| 1777930819 | 25.56° C | 36% | 998.2 hPa | 0 mm | - | 333 W/m² | - |
| 1777930515 | 25° C | 35% | 998.3 hPa | 0 mm | - | 372 W/m² | - |
| 1777930213 | 25.56° C | 35% | 998.3 hPa | 0 mm | - | 250 W/m² | - |
| 1777929908 | 25° C | 34% | 998.3 hPa | 0 mm | - | 378 W/m² | - |
| 1777929606 | 24.44° C | 35% | 998.4 hPa | 0 mm | - | 378 W/m² | - |
| 1777929302 | 23.89° C | 36% | 998.6 hPa | 0 mm | - | 276 W/m² | - |
| 1777929000 | 23.89° C | 35% | 998.5 hPa | 0 mm | - | 211 W/m² | - |
| 1777928696 | 23.89° C | 35% | 998.7 hPa | 0 mm | - | 329 W/m² | - |
| 1777928393 | 23.89° C | 36% | 998.6 hPa | 0 mm | - | 231 W/m² | - |
| 1777928091 | 24.44° C | 33% | 998.7 hPa | 0 mm | - | 319 W/m² | - |
| 1777927789 | 24.44° C | 33% | 998.4 hPa | 0 mm | - | 386 W/m² | - |
| 1777927487 | 24.44° C | 33% | 998.8 hPa | 0 mm | - | 339 W/m² | - |
| 1777927186 | 24.44° C | 33% | 998.4 hPa | 0 mm | - | 342 W/m² | - |
| 1777926883 | 24.44° C | 34% | 998.5 hPa | 0 mm | - | 361 W/m² | - |
| 1777926579 | 25° C | 31% | 998.5 hPa | 0 mm | - | 434 W/m² | - |
| 1777926276 | 25° C | 31% | 998.6 hPa | 0 mm | - | 507 W/m² | - |
| 1777925972 | 25° C | 31% | 998.6 hPa | 0 mm | - | 528 W/m² | - |
| 1777925670 | 24.44° C | 31% | 998.5 hPa | 0 mm | - | 440 W/m² | - |
| 1777925367 | 25° C | 32% | 998.6 hPa | 0 mm | - | 543 W/m² | - |
| 1777925064 | 24.44° C | 31% | 998.8 hPa | 0 mm | - | 505 W/m² | - |
| 1777924761 | 24.44° C | 32% | 998.9 hPa | 0 mm | - | 635 W/m² | - |
| 1777924456 | 24.44° C | 30% | 998.7 hPa | 0 mm | - | 594 W/m² | - |
| 1777924153 | 24.44° C | 32% | 999 hPa | 0 mm | - | 566 W/m² | - |
| 1777923849 | 24.44° C | 31% | 999.1 hPa | 0 mm | - | 501 W/m² | - |
| 1777923545 | 23.89° C | 32% | 998.9 hPa | 0 mm | - | 475 W/m² | - |
* Rain latest hour (hover to see other rain measurements)
** Current wind speed in m/s (hover to see current wind gust speed)